GFSMA_prec_pwat_231.txt.gz
Precipitable_Water
1.97 1.97 1.93 2.11 2.13 2.03 2.02 2.01 1.93 1.99 2.07 2.12 2.22 2.14 2.14 2.06 1.97 2.02 2.07 2.00 1.95 1.96 1.97 1.91 1.76 1.65 1.53 1.53 1.49 1.53 1.34 1.45 1.58 1.45 1.29 1.26 1.30 1.40 1.52 1.59 1.51 1.48 1.51
2.02 2.04 1.97 2.06 2.11 1.99 1.98 1.99 2.02 2.03 2.03 1.97 1.99 2.10 2.12 2.15 2.03 2.01 1.99 1.96 1.94 1.83 1.81 1.80 1.74 1.62 1.47 1.52 1.48 1.37 1.37 1.29 1.42 1.52 1.43 1.27 1.33 1.49 1.64 1.53 1.49 1.46 1.53
1.99 2.04 2.02 1.96 2.02 2.07 1.99 1.93 2.09 2.11 2.06 2.14 1.94 2.06 2.18 2.09 2.05 2.06 2.07 1.99 1.90 1.86 1.79 1.74 1.69 1.62 1.51 1.42 1.43 1.38 1.28 1.31 1.40 1.49 1.52 1.40 1.37 1.54 1.51 1.45 1.48 1.63 1.69
2.06 2.06 2.02 1.96 1.98 2.08 1.97 1.98 2.10 2.01 1.99 1.89 1.98 2.01 1.88 2.02 2.07 1.94 2.00 2.04 2.01 1.85 1.81 1.75 1.72 1.65 1.55 1.49 1.41 1.35 1.30 1.42 1.41 1.44 1.49 1.37 1.39 1.55 1.52 1.46 1.42 1.46 1.50
2.06 2.01 2.01 1.93 1.89 1.86 1.83 2.14 2.12 2.05 1.94 1.93 2.06 1.95 1.90 1.94 1.97 2.00 1.97 2.09 2.03 2.03 1.88 1.77 1.76 1.74 1.64 1.61 1.45 1.35 1.31 1.38 1.43 1.41 1.44 1.33 1.41 1.57 1.53 1.41 1.47 1.46 1.51
2.14 1.98 2.02 1.95 1.83 1.84 1.86 2.04 1.98 2.07 1.94 1.90 2.03 1.95 1.89 1.85 1.85 2.09 1.99 1.94 1.98 1.99 2.00 1.89 1.82 1.72 1.66 1.59 1.47 1.38 1.34 1.32 1.42 1.40 1.39 1.29 1.36 1.49 1.42 1.31 1.27 1.33 1.38
1.98 2.01 1.99 1.95 1.88 1.62 1.75 1.99 1.87 1.82 1.85 2.08 1.90 1.86 1.64 1.80 1.87 1.90 1.93 1.89 1.87 1.88 1.88 1.96 1.93 1.81 1.71 1.62 1.51 1.39 1.38 1.34 1.37 1.38 1.40 1.33 1.29 1.35 1.31 1.24 1.26 1.30 1.34
2.09 2.08 2.01 1.98 1.96 1.67 1.65 1.91 1.88 1.85 1.81 1.76 1.79 1.68 1.47 1.65 1.81 1.85 1.92 1.89 1.94 1.89 1.80 1.86 1.92 1.94 1.84 1.66 1.52 1.46 1.40 1.35 1.43 1.40 1.34 1.34 1.28 1.25 1.23 1.25 1.28 1.34 1.33
2.22 2.19 2.09 2.06 2.07 1.99 1.72 1.87 1.95 1.83 1.76 1.96 2.06 1.90 1.60 1.42 1.58 1.71 1.74 1.78 1.75 1.86 1.74 1.83 1.81 1.88 1.89 1.81 1.56 1.53 1.44 1.36 1.46 1.51 1.43 1.34 1.24 1.18 1.19 1.24 1.30 1.30 1.24
2.12 2.09 2.11 2.05 2.08 2.09 1.94 1.83 1.97 1.90 1.92 1.81 1.93 2.02 2.04 1.83 1.56 1.44 1.67 1.61 1.64 1.72 1.79 1.80 1.75 1.79 1.84 1.88 1.85 1.65 1.46 1.44 1.52 1.55 1.54 1.47 1.35 1.21 1.25 1.31 1.35 1.29 1.30
2.11 2.09 2.08 2.08 2.05 2.00 1.93 1.92 1.88 1.96 2.04 1.95 1.86 1.74 1.92 1.74 1.68 1.63 1.42 1.43 1.66 1.71 1.74 1.86 1.79 1.79 1.76 1.75 1.77 1.77 1.82 1.80 1.75 1.67 1.60 1.60 1.53 1.38 1.29 1.32 1.32 1.31 1.38
2.13 2.13 2.13 2.07 2.07 1.98 1.92 1.92 1.93 1.99 2.02 1.91 1.95 1.83 1.81 1.63 1.59 1.59 1.56 1.58 1.45 1.66 1.79 1.80 1.86 1.83 1.77 1.84 1.76 1.73 1.76 1.76 1.85 1.84 1.80 1.75 1.70 1.59 1.46 1.36 1.38 1.40 1.46
1.92 1.99 2.11 2.07 1.94 1.94 1.94 1.89 1.84 1.85 1.86 1.81 1.71 1.73 1.78 1.78 1.82 1.61 1.62 1.51 1.50 1.74 1.71 1.91 1.86 1.85 1.83 1.82 1.77 1.81 1.71 1.71 1.68 1.74 1.76 1.75 1.76 1.76 1.73 1.71 1.63 1.57 1.63
1.78 1.91 2.01 2.02 2.00 2.00 1.77 1.76 1.80 1.76 1.80 1.74 1.72 1.64 1.56 1.66 1.72 1.80 1.62 1.53 1.47 1.48 1.72 1.69 1.77 1.70 1.89 1.91 1.89 1.77 1.75 1.74 1.69 1.67 1.57 1.57 1.60 1.67 1.70 1.68 1.69 1.68 1.67
1.84 1.84 1.84 1.84 1.91 1.95 2.00 1.89 1.66 1.57 1.66 1.67 1.70 1.71 1.63 1.61 1.60 1.68 1.75 1.70 1.50 1.28 1.32 1.57 1.64 1.72 1.80 1.88 1.96 1.82 1.85 1.86 1.80 1.80 1.77 1.61 1.46 1.42 1.44 1.51 1.56 1.56 1.53
2.01 1.97 1.89 1.81 1.70 1.80 1.89 1.87 1.86 1.86 1.69 1.65 1.58 1.60 1.59 1.62 1.65 1.72 1.73 1.84 1.71 1.66 1.21 1.45 1.59 1.79 1.92 1.75 1.75 1.92 1.69 1.85 2.05 1.96 1.88 1.84 1.76 1.62 1.43 1.35 1.36 1.37 1.36
1.87 1.87 2.01 1.96 1.88 1.86 1.77 1.71 1.73 1.69 1.64 1.71 1.67 1.53 1.54 1.65 1.57 1.55 1.58 1.63 1.68 1.81 1.55 1.59 1.57 1.64 1.76 1.80 1.68 1.80 1.84 1.96 1.96 2.14 2.04 1.93 1.84 1.82 1.77 1.65 1.52 1.42 1.41
1.62 1.73 1.93 2.06 2.01 1.97 2.00 1.99 1.81 1.75 1.66 1.59 1.67 1.70 1.63 1.67 1.62 1.64 1.53 1.43 1.54 1.64 1.61 1.48 1.70 1.67 1.44 1.56 1.70 1.80 1.94 2.11 2.20 2.05 1.96 1.94 1.95 1.92 1.86 1.78 1.71 1.66 1.60
1.28 1.40 1.54 1.61 1.71 1.80 1.81 1.84 1.87 1.88 1.87 1.85 1.84 1.82 1.79 1.76 1.73 1.76 1.72 1.64 1.55 1.54 1.59 1.58 1.62 1.83 1.81 1.78 1.49 1.63 1.81 1.80 2.05 2.13 2.05 2.01 2.04 2.04 1.95 1.90 1.82 1.79 1.78
0.93 0.90 1.01 1.17 1.28 1.38 1.48 1.61 1.70 1.70 1.75 1.80 1.82 1.82 1.83 1.84 1.82 1.82 1.76 1.71 1.69 1.60 1.55 1.59 1.60 1.65 1.83 2.03 1.98 1.68 1.43 1.78 1.81 2.08 2.14 2.05 2.05 2.13 2.14 2.00 1.94 1.86 1.82
0.98 0.96 0.96 0.99 1.00 0.99 1.00 1.09 1.34 1.47 1.51 1.57 1.63 1.68 1.68 1.70 1.73 1.79 1.75 1.72 1.71 1.65 1.55 1.47 1.40 1.46 1.43 1.56 1.80 1.87 1.58 1.56 1.73 1.96 1.98 1.97 1.92 2.02 2.04 2.06 2.08 2.01 1.93
0.93 0.93 0.91 0.92 0.94 1.00 1.09 1.11 1.08 1.03 1.03 1.07 1.13 1.33 1.47 1.56 1.56 1.58 1.60 1.63 1.66 1.61 1.60 1.62 1.53 1.47 1.51 1.52 1.56 1.66 1.76 1.70 1.55 1.84 1.69 1.70 1.95 1.82 1.98 1.89 1.85 2.11 2.08
0.98 0.96 0.99 0.98 0.90 0.91 0.97 1.03 1.06 1.03 1.01 0.99 0.97 0.95 0.93 0.96 1.00 1.05 1.12 1.26 1.38 1.52 1.56 1.56 1.52 1.56 1.55 1.64 1.65 1.55 1.64 1.69 1.71 1.89 1.84 1.53 1.81 1.84 1.77 1.72 1.78 2.07 2.03
0.94 0.93 0.94 0.99 0.98 1.04 1.05 1.03 1.02 0.99 0.95 0.95 0.95 0.94 0.93 0.94 0.98 0.95 0.92 0.93 0.99 1.07 1.16 1.35 1.47 1.57 1.68 1.81 1.85 1.73 1.64 1.67 1.72 1.73 1.86 1.64 1.73 1.66 1.89 1.83 1.83 1.95 1.95
0.86 0.88 0.94 0.94 0.97 1.00 1.07 1.06 1.06 1.02 0.99 0.99 1.03 1.04 1.04 1.02 1.04 1.02 0.97 0.90 0.88 0.93 1.16 1.23 1.19 1.31 1.47 1.61 1.69 1.75 1.66 1.60 1.52 1.53 1.72 1.62 1.69 1.46 1.60 1.73 1.77 1.76 1.86
0.84 0.87 0.87 0.94 0.98 0.94 1.01 1.04 1.03 0.98 0.92 0.98 0.99 1.04 1.09 1.09 1.09 1.10 1.05 0.99 0.90 0.95 1.06 1.10 1.16 1.21 1.25 1.25 1.36 1.45 1.45 1.37 1.45 1.47 1.68 1.61 1.61 1.51 1.20 1.51 1.75 1.91 1.91

GFSMA_prec_pwat_234.txt.gz
Precipitable_Water
1.92 1.98 1.93 1.94 2.08 2.13 2.08 2.06 2.00 1.94 1.99 2.09 2.06 2.05 2.04 1.99 2.05 2.03 2.02 2.06 1.99 1.99 2.09 1.97 1.78 1.66 1.61 1.59 1.63 1.47 1.40 1.53 1.47 1.42 1.31 1.28 1.29 1.36 1.44 1.55 1.58 1.49 1.52
1.98 1.99 1.95 1.99 2.11 2.09 2.02 2.00 2.01 2.02 1.97 2.04 2.00 2.03 2.11 2.09 2.03 2.04 2.04 2.03 1.97 1.92 1.98 1.94 1.81 1.68 1.63 1.57 1.54 1.57 1.37 1.46 1.54 1.40 1.29 1.26 1.28 1.38 1.52 1.54 1.51 1.45 1.47
1.97 2.02 2.01 2.00 2.05 2.04 1.99 2.07 2.02 2.11 2.14 2.17 1.91 1.95 2.11 2.10 2.08 2.03 1.98 1.96 2.00 1.89 1.82 1.82 1.75 1.70 1.62 1.55 1.54 1.43 1.45 1.35 1.46 1.49 1.43 1.27 1.29 1.43 1.56 1.51 1.49 1.48 1.60
2.08 2.00 2.01 2.00 2.04 2.08 2.05 1.96 2.05 2.01 2.09 1.95 2.01 2.01 1.93 2.03 2.03 2.00 2.06 1.99 1.85 1.83 1.79 1.75 1.74 1.70 1.59 1.45 1.48 1.49 1.35 1.31 1.32 1.40 1.46 1.45 1.34 1.42 1.54 1.50 1.47 1.50 1.57
2.12 2.04 2.02 2.00 2.02 1.96 1.84 2.05 2.13 2.08 1.96 1.98 1.95 2.02 1.90 2.05 1.95 2.00 2.01 2.09 2.00 1.87 1.77 1.72 1.69 1.67 1.61 1.52 1.46 1.41 1.41 1.29 1.38 1.38 1.40 1.44 1.43 1.33 1.52 1.53 1.44 1.39 1.41
2.22 2.10 2.01 1.95 1.83 1.74 1.72 2.10 2.05 2.00 2.03 1.90 1.97 1.99 1.92 1.90 1.93 2.06 1.96 2.07 2.04 2.03 1.94 1.80 1.70 1.69 1.67 1.56 1.50 1.49 1.40 1.32 1.32 1.44 1.41 1.41 1.42 1.38 1.51 1.54 1.43 1.38 1.49
2.15 2.08 1.97 1.97 1.83 1.69 1.66 1.91 1.96 1.80 1.87 1.94 1.98 1.89 1.73 1.86 1.94 1.98 1.92 1.91 1.94 1.93 2.00 1.97 1.82 1.75 1.70 1.61 1.57 1.58 1.43 1.33 1.27 1.32 1.42 1.40 1.40 1.35 1.44 1.48 1.37 1.24 1.23
2.10 2.02 2.01 1.94 1.92 1.71 1.52 1.74 1.92 1.84 1.86 1.82 1.80 1.70 1.47 1.69 1.90 1.90 1.99 1.92 1.87 1.87 1.83 1.95 1.93 1.82 1.76 1.72 1.62 1.52 1.41 1.33 1.30 1.29 1.32 1.38 1.38 1.37 1.33 1.38 1.36 1.31 1.30
2.14 2.13 2.11 2.01 1.96 1.85 1.64 1.66 1.94 1.91 1.83 1.99 1.99 1.80 1.53 1.43 1.63 1.83 1.81 1.85 1.93 1.85 1.75 1.84 1.92 1.93 1.88 1.80 1.69 1.58 1.51 1.35 1.30 1.29 1.31 1.32 1.31 1.31 1.31 1.30 1.29 1.28 1.33
2.15 2.15 2.16 2.10 2.01 1.94 1.90 1.80 1.95 1.97 1.93 1.82 1.90 2.03 1.91 1.83 1.54 1.51 1.78 1.81 1.69 1.82 1.75 1.72 1.81 1.86 1.94 1.92 1.83 1.64 1.47 1.40 1.31 1.28 1.27 1.33 1.39 1.36 1.31 1.26 1.21 1.20 1.29
2.14 2.09 2.09 2.05 2.02 1.94 1.95 1.99 1.86 1.94 2.04 1.95 1.90 1.86 1.84 1.79 1.75 1.54 1.47 1.58 1.66 1.69 1.78 1.76 1.76 1.72 1.76 1.86 1.89 1.83 1.65 1.52 1.42 1.30 1.26 1.35 1.44 1.47 1.44 1.38 1.29 1.22 1.28
2.08 2.11 2.13 2.11 2.02 1.92 1.87 1.91 1.91 1.88 1.93 1.92 1.88 1.83 1.78 1.69 1.61 1.60 1.55 1.57 1.54 1.62 1.81 1.84 1.84 1.82 1.83 1.79 1.66 1.75 1.83 1.84 1.81 1.72 1.66 1.64 1.64 1.63 1.61 1.57 1.50 1.37 1.29
1.97 2.08 2.11 2.06 2.05 1.95 1.93 1.94 1.89 1.83 1.89 1.90 1.77 1.71 1.76 1.73 1.83 1.68 1.66 1.56 1.48 1.63 1.72 1.83 1.88 1.91 1.85 1.79 1.77 1.71 1.67 1.70 1.77 1.81 1.77 1.78 1.77 1.75 1.75 1.75 1.71 1.62 1.53
1.89 2.03 2.08 2.11 2.09 1.91 1.82 1.86 1.83 1.75 1.73 1.77 1.73 1.66 1.58 1.54 1.71 1.78 1.67 1.55 1.43 1.54 1.60 1.70 1.84 1.78 1.77 1.80 1.86 1.86 1.80 1.65 1.69 1.70 1.69 1.71 1.66 1.60 1.64 1.70 1.76 1.78 1.75
1.98 1.92 1.90 1.94 1.98 1.98 1.98 1.79 1.67 1.67 1.69 1.67 1.67 1.65 1.63 1.64 1.56 1.59 1.67 1.68 1.52 1.27 1.38 1.56 1.63 1.86 1.80 1.87 1.85 1.89 1.88 1.80 1.60 1.66 1.69 1.72 1.72 1.68 1.56 1.54 1.56 1.64 1.66
2.06 2.09 1.92 1.85 1.76 1.82 1.91 1.91 1.87 1.78 1.64 1.59 1.64 1.57 1.61 1.65 1.64 1.65 1.61 1.60 1.69 1.49 1.35 1.53 1.59 1.71 1.80 1.90 1.89 1.80 1.81 1.92 1.84 1.78 1.71 1.72 1.70 1.69 1.67 1.59 1.48 1.44 1.46
1.74 1.80 1.96 2.00 1.86 1.87 1.78 1.71 1.74 1.74 1.68 1.73 1.71 1.59 1.52 1.59 1.58 1.62 1.63 1.62 1.50 1.62 1.46 1.76 1.71 1.71 1.60 1.66 1.75 1.87 1.89 1.84 1.80 1.75 1.77 1.91 1.79 1.75 1.74 1.73 1.70 1.63 1.51
1.57 1.62 1.77 1.96 2.06 2.05 2.01 1.99 1.89 1.78 1.75 1.68 1.68 1.72 1.74 1.72 1.69 1.78 1.76 1.70 1.65 1.69 1.55 1.42 1.60 1.74 1.74 1.71 1.58 1.58 1.89 1.92 1.90 1.92 1.88 2.00 1.92 1.90 1.85 1.81 1.77 1.76 1.74
1.18 1.27 1.42 1.48 1.63 1.72 1.80 1.85 1.86 1.89 1.88 1.82 1.80 1.79 1.76 1.78 1.72 1.71 1.71 1.70 1.66 1.64 1.62 1.54 1.54 1.72 1.72 1.85 1.80 1.65 1.54 1.65 1.86 1.97 1.97 1.91 1.96 1.88 1.89 1.86 1.86 1.87 1.82
1.00 0.98 1.00 1.10 1.23 1.31 1.38 1.44 1.54 1.62 1.68 1.75 1.79 1.81 1.83 1.79 1.75 1.77 1.77 1.70 1.65 1.59 1.58 1.53 1.45 1.46 1.56 1.67 1.80 1.82 1.80 1.80 1.53 1.72 1.92 1.98 2.02 1.98 1.93 1.98 2.00 1.99 1.92
1.00 0.99 0.95 0.97 1.01 1.03 0.99 0.96 1.03 1.19 1.35 1.50 1.60 1.64 1.68 1.74 1.74 1.75 1.74 1.73 1.72 1.63 1.55 1.50 1.45 1.48 1.53 1.55 1.44 1.50 1.58 1.73 1.85 1.66 1.78 1.89 2.03 2.06 2.01 1.95 2.03 2.07 2.04
0.95 0.93 0.91 0.92 0.91 0.97 1.04 1.03 1.01 0.97 0.98 0.96 0.99 1.10 1.22 1.35 1.47 1.51 1.66 1.71 1.66 1.56 1.55 1.52 1.50 1.48 1.49 1.50 1.56 1.55 1.53 1.48 1.45 1.78 1.64 1.59 1.77 1.75 1.88 1.94 1.98 2.11 1.99
0.95 0.91 0.93 0.95 0.95 0.98 0.99 0.96 0.98 0.98 0.97 0.98 0.98 0.96 0.96 1.01 1.01 0.98 0.95 0.96 1.08 1.20 1.37 1.40 1.29 1.44 1.41 1.58 1.69 1.63 1.60 1.58 1.51 1.68 1.80 1.71 1.90 1.73 1.69 1.82 1.95 1.94 1.84
0.86 0.85 0.88 0.92 0.93 0.98 1.01 1.01 1.03 1.03 0.99 0.98 1.00 1.01 0.97 0.95 0.97 0.98 0.96 0.94 0.95 0.98 1.01 1.03 1.08 1.13 1.20 1.38 1.57 1.66 1.71 1.76 1.76 1.74 1.78 1.44 1.67 1.62 1.87 1.85 1.82 1.87 1.88
0.81 0.79 0.83 0.86 0.92 0.96 0.99 0.98 0.97 0.96 0.95 0.96 1.02 1.06 1.06 1.03 1.07 1.06 1.00 0.94 0.93 0.96 1.07 1.10 1.13 1.17 1.21 1.22 1.24 1.35 1.39 1.47 1.44 1.55 1.74 1.62 1.59 1.57 1.65 1.66 1.83 1.74 1.73
0.83 0.86 0.88 0.94 0.98 0.93 0.96 0.96 0.95 0.92 0.87 0.90 0.97 1.02 1.08 1.06 1.09 1.10 1.07 1.03 0.95 0.99 1.05 1.07 1.08 1.10 1.16 1.21 1.24 1.23 1.11 0.95 1.05 1.09 1.38 1.44 1.46 1.59 1.42 1.62 1.66 1.66 1.53

GFSMA_prec_pwat_237.txt.gz
Precipitable_Water
1.98 1.96 1.97 1.95 1.94 2.12 2.05 2.08 2.05 1.92 2.00 2.09 2.13 2.06 2.12 2.11 2.09 2.00 2.02 2.06 2.03 1.94 2.04 2.06 1.80 1.72 1.62 1.75 1.59 1.54 1.48 1.43 1.43 1.34 1.24 1.30 1.41 1.40 1.41 1.52 1.56 1.49 1.57
1.99 1.97 1.95 1.89 1.94 2.12 2.00 2.03 1.95 2.05 1.98 2.05 2.03 2.08 2.12 2.15 2.10 2.04 2.03 1.99 2.04 1.98 1.98 2.06 1.82 1.68 1.66 1.61 1.65 1.51 1.42 1.46 1.48 1.41 1.32 1.26 1.29 1.34 1.40 1.53 1.57 1.50 1.50
2.05 1.96 1.97 1.96 2.04 2.12 1.96 1.98 2.08 2.11 2.10 2.14 1.98 2.06 2.10 2.13 2.11 2.06 2.02 1.93 1.95 1.96 1.93 2.00 1.90 1.74 1.63 1.63 1.57 1.60 1.41 1.38 1.55 1.47 1.30 1.26 1.27 1.35 1.46 1.53 1.56 1.54 1.55
2.13 1.98 1.98 2.00 2.07 2.05 2.01 1.92 1.96 2.04 2.06 1.96 1.97 1.97 1.91 2.04 2.08 2.05 2.05 1.90 1.89 1.89 1.87 1.84 1.85 1.74 1.65 1.63 1.56 1.46 1.50 1.37 1.38 1.49 1.46 1.36 1.27 1.32 1.43 1.50 1.50 1.51 1.56
2.14 2.02 2.02 2.04 2.05 2.01 2.01 1.91 2.10 2.06 1.99 1.96 1.88 2.01 1.85 1.97 1.93 2.01 2.02 1.96 1.84 1.80 1.79 1.76 1.75 1.69 1.63 1.61 1.55 1.53 1.43 1.33 1.31 1.26 1.38 1.41 1.41 1.37 1.38 1.54 1.55 1.49 1.44
2.21 2.19 2.06 2.03 2.00 1.91 1.82 1.96 2.04 1.99 2.03 1.90 1.95 1.97 1.90 1.87 1.88 1.96 1.98 2.05 1.98 1.88 1.75 1.71 1.70 1.69 1.63 1.60 1.52 1.45 1.43 1.40 1.24 1.23 1.33 1.32 1.37 1.41 1.37 1.43 1.55 1.52 1.42
2.23 2.13 2.07 1.97 1.92 1.72 1.67 1.86 1.98 1.84 1.85 1.90 1.91 1.87 1.75 1.81 1.90 1.90 1.89 1.92 1.91 1.96 1.96 1.81 1.70 1.70 1.63 1.57 1.53 1.51 1.47 1.42 1.35 1.22 1.35 1.32 1.31 1.33 1.36 1.35 1.44 1.49 1.39
2.18 2.10 2.01 1.94 1.93 1.75 1.71 1.69 1.88 1.78 1.84 1.85 1.79 1.67 1.47 1.64 1.81 1.88 1.93 1.82 1.79 1.81 1.84 1.96 1.91 1.78 1.70 1.64 1.61 1.55 1.48 1.50 1.43 1.30 1.25 1.33 1.32 1.30 1.29 1.29 1.31 1.39 1.37
2.14 2.09 2.06 2.02 1.96 1.92 1.66 1.54 1.79 1.87 1.76 1.93 1.99 1.77 1.49 1.42 1.62 1.80 1.72 1.93 1.93 1.86 1.76 1.84 1.92 1.92 1.82 1.71 1.69 1.65 1.58 1.56 1.51 1.33 1.27 1.24 1.26 1.29 1.27 1.25 1.20 1.19 1.25
2.16 2.11 2.13 2.10 2.02 1.96 1.77 1.69 1.76 1.89 1.90 1.77 1.93 1.97 1.92 1.80 1.49 1.51 1.79 1.85 1.80 1.78 1.83 1.77 1.76 1.85 1.90 1.89 1.80 1.69 1.62 1.55 1.45 1.36 1.32 1.30 1.28 1.28 1.29 1.24 1.21 1.18 1.17
2.16 2.15 2.13 2.07 2.06 1.97 1.91 1.93 1.82 1.88 1.96 1.98 1.85 1.83 1.86 1.79 1.76 1.60 1.44 1.58 1.73 1.73 1.76 1.78 1.79 1.79 1.78 1.84 1.88 1.87 1.72 1.56 1.52 1.46 1.33 1.27 1.27 1.24 1.26 1.37 1.38 1.34 1.27
2.09 2.11 2.10 2.07 2.06 1.98 1.88 1.93 1.99 1.87 1.89 1.93 1.91 1.91 1.79 1.73 1.67 1.53 1.54 1.54 1.49 1.56 1.73 1.83 1.84 1.88 1.84 1.85 1.83 1.78 1.85 1.80 1.66 1.54 1.47 1.44 1.38 1.33 1.35 1.43 1.49 1.51 1.49
1.98 2.02 2.08 2.06 2.02 1.98 1.92 1.96 1.92 1.90 1.84 1.91 1.86 1.78 1.80 1.72 1.82 1.70 1.62 1.56 1.46 1.59 1.68 1.83 1.89 1.94 1.93 1.88 1.87 1.86 1.74 1.71 1.74 1.76 1.74 1.71 1.69 1.68 1.68 1.70 1.73 1.77 1.75
1.93 2.08 2.09 2.06 2.05 2.05 1.97 1.93 1.88 1.86 1.81 1.79 1.89 1.77 1.66 1.62 1.67 1.77 1.68 1.60 1.45 1.48 1.62 1.56 1.86 1.94 1.96 1.93 1.90 1.87 1.87 1.87 1.78 1.69 1.66 1.72 1.72 1.73 1.72 1.71 1.72 1.72 1.73
2.00 1.92 1.95 2.00 2.05 1.99 1.86 1.79 1.81 1.76 1.72 1.67 1.68 1.68 1.66 1.66 1.65 1.59 1.59 1.62 1.62 1.38 1.41 1.69 1.68 1.89 1.89 1.90 1.94 1.94 1.89 1.87 1.89 1.86 1.69 1.68 1.68 1.65 1.62 1.61 1.59 1.59 1.61
2.11 2.10 1.93 1.84 1.85 1.92 1.98 1.94 1.80 1.72 1.66 1.65 1.66 1.66 1.62 1.60 1.65 1.66 1.60 1.60 1.59 1.53 1.36 1.57 1.71 1.76 1.90 1.81 1.93 1.96 1.91 1.88 1.80 1.89 1.77 1.77 1.73 1.72 1.72 1.68 1.65 1.63 1.57
1.73 1.86 1.96 1.96 1.82 1.77 1.76 1.78 1.83 1.83 1.73 1.67 1.66 1.58 1.57 1.60 1.55 1.64 1.67 1.63 1.58 1.59 1.39 1.54 1.72 1.78 1.69 1.73 1.84 1.93 1.90 1.94 1.90 1.83 1.87 1.87 1.77 1.69 1.73 1.76 1.71 1.70 1.69
1.48 1.54 1.67 1.90 2.01 2.00 2.04 1.95 1.82 1.78 1.75 1.72 1.75 1.75 1.69 1.70 1.60 1.69 1.70 1.67 1.67 1.67 1.54 1.37 1.52 1.60 1.62 1.77 1.76 1.71 1.80 1.75 1.94 1.95 1.83 1.79 1.90 1.92 1.92 1.84 1.82 1.80 1.78
1.11 1.25 1.37 1.42 1.56 1.78 1.92 1.93 1.92 1.91 1.89 1.80 1.76 1.72 1.70 1.73 1.69 1.73 1.74 1.69 1.72 1.71 1.65 1.51 1.45 1.58 1.60 1.68 1.69 1.75 1.72 1.76 1.77 1.85 1.95 2.01 1.97 1.89 1.86 1.92 1.89 1.85 1.81
1.01 1.02 1.02 1.05 1.20 1.31 1.38 1.42 1.49 1.63 1.67 1.75 1.79 1.78 1.75 1.72 1.69 1.68 1.68 1.67 1.65 1.60 1.58 1.54 1.52 1.53 1.57 1.60 1.60 1.54 1.54 1.69 1.63 1.75 1.78 1.78 1.93 2.05 1.95 1.95 1.90 1.88 1.87
1.08 1.04 0.98 0.98 0.99 1.03 1.03 1.01 1.03 1.05 1.20 1.37 1.53 1.64 1.70 1.73 1.74 1.72 1.67 1.67 1.70 1.67 1.62 1.55 1.46 1.47 1.46 1.47 1.43 1.52 1.48 1.57 1.68 1.77 1.79 1.76 1.68 1.80 2.01 2.12 2.04 1.97 1.90
1.04 1.00 0.94 0.95 0.94 0.97 0.99 0.97 0.97 0.95 0.97 0.95 0.94 1.06 1.19 1.30 1.37 1.40 1.45 1.48 1.52 1.42 1.40 1.44 1.47 1.45 1.50 1.55 1.61 1.58 1.48 1.39 1.27 1.65 1.61 1.67 1.78 1.70 1.82 1.88 2.00 2.00 1.93
0.96 0.92 0.94 0.95 0.95 1.00 1.01 0.98 0.97 0.94 0.91 0.94 0.96 0.98 0.99 1.03 1.03 0.99 1.00 1.04 1.08 1.10 1.14 1.18 1.10 1.13 1.19 1.33 1.37 1.37 1.45 1.46 1.46 1.65 1.66 1.43 1.66 1.58 1.74 1.85 1.79 1.70 1.71
0.90 0.84 0.82 0.84 0.90 0.97 0.99 1.00 1.00 0.99 0.99 1.00 1.02 1.03 1.01 1.02 1.02 0.96 0.92 0.89 0.91 0.93 0.95 0.97 0.97 0.97 1.00 1.03 1.04 1.02 1.09 1.18 1.42 1.61 1.73 1.39 1.66 1.50 1.66 1.77 1.82 1.88 1.90
0.86 0.85 0.87 0.85 0.88 0.89 0.95 0.98 0.97 0.95 0.93 0.95 1.00 1.04 1.03 1.03 1.04 1.02 0.97 0.94 0.93 0.95 1.06 1.05 1.05 1.05 1.04 1.05 1.09 1.09 0.97 0.93 0.81 0.88 1.27 1.35 1.46 1.54 1.64 1.61 1.70 1.74 1.73
0.88 0.91 0.90 0.95 0.95 0.91 0.95 0.96 0.95 0.91 0.86 0.89 0.96 1.01 1.08 1.08 1.09 1.07 1.02 1.00 0.92 0.97 1.00 1.01 1.02 1.04 1.08 1.07 1.10 1.11 1.07 0.95 0.93 0.86 1.03 0.93 0.93 1.16 1.06 1.36 1.52 1.65 1.70

GFSMA_prec_pwat_240.txt.gz
Precipitable_Water
1.96 2.01 1.96 1.96 1.98 1.98 2.06 2.05 2.06 2.01 2.02 2.11 2.12 2.17 2.07 2.11 2.11 2.05 1.96 2.02 1.99 1.89 1.98 1.93 1.80 1.68 1.76 1.71 1.61 1.55 1.52 1.50 1.51 1.35 1.31 1.51 1.59 1.42 1.54 1.58 1.52 1.53 1.58
2.03 1.98 1.94 1.91 1.93 1.95 2.07 2.06 2.05 2.02 2.07 2.06 2.04 2.06 2.07 2.19 2.14 2.07 1.99 1.98 1.98 1.96 1.91 1.91 1.83 1.67 1.68 1.75 1.67 1.60 1.57 1.43 1.44 1.34 1.24 1.31 1.42 1.38 1.42 1.54 1.63 1.56 1.53
2.13 1.97 1.92 1.91 1.90 2.05 2.00 2.01 2.04 2.14 2.10 2.13 2.10 2.14 2.08 2.09 2.10 2.08 2.03 1.97 2.02 1.99 1.90 1.94 1.89 1.72 1.67 1.62 1.67 1.55 1.48 1.45 1.45 1.41 1.32 1.25 1.28 1.31 1.34 1.49 1.58 1.59 1.59
2.22 2.02 1.91 1.97 2.05 2.08 1.98 1.89 1.96 1.99 2.09 2.02 1.97 1.99 1.95 2.03 2.06 2.06 2.07 1.98 1.91 1.96 1.92 1.89 1.95 1.76 1.65 1.70 1.57 1.58 1.56 1.41 1.48 1.53 1.36 1.26 1.26 1.30 1.33 1.49 1.54 1.54 1.57
2.25 2.05 1.95 2.01 2.05 2.02 1.96 1.92 1.97 2.06 2.01 2.01 1.92 2.04 1.94 1.94 1.97 2.03 2.03 1.95 1.88 1.89 1.84 1.86 1.88 1.85 1.71 1.64 1.62 1.50 1.52 1.56 1.40 1.44 1.54 1.42 1.29 1.26 1.30 1.37 1.47 1.50 1.47
2.25 2.13 2.08 2.04 2.02 1.94 1.92 1.87 2.03 2.05 2.01 1.93 1.94 1.96 1.97 1.95 1.94 1.96 1.99 2.03 1.95 1.80 1.82 1.78 1.77 1.76 1.68 1.61 1.63 1.57 1.49 1.40 1.40 1.39 1.31 1.45 1.42 1.38 1.36 1.34 1.40 1.49 1.50
2.22 2.20 2.09 2.03 1.95 1.87 1.79 1.80 1.99 1.94 1.84 1.90 1.88 1.90 1.84 1.89 1.91 1.95 2.00 1.97 1.94 1.94 1.79 1.74 1.69 1.67 1.65 1.59 1.56 1.59 1.51 1.48 1.44 1.34 1.26 1.26 1.34 1.35 1.38 1.41 1.37 1.42 1.48
2.26 2.29 2.08 1.98 1.92 1.81 1.64 1.69 1.88 1.84 1.84 1.89 1.80 1.71 1.52 1.64 1.80 1.91 1.89 1.84 1.86 1.88 1.91 1.91 1.74 1.66 1.64 1.59 1.56 1.56 1.52 1.43 1.42 1.41 1.34 1.21 1.35 1.33 1.32 1.32 1.34 1.31 1.33
2.20 2.15 2.09 2.00 1.92 1.88 1.68 1.63 1.75 1.86 1.77 1.95 1.97 1.76 1.50 1.40 1.61 1.85 1.82 1.95 1.87 1.86 1.78 1.86 1.92 1.86 1.78 1.70 1.59 1.55 1.57 1.55 1.53 1.49 1.44 1.34 1.22 1.32 1.33 1.31 1.29 1.28 1.25
2.15 2.17 2.08 2.02 1.98 1.94 1.82 1.64 1.70 1.83 1.92 1.81 1.97 1.96 1.93 1.77 1.50 1.48 1.82 1.78 1.88 1.82 1.82 1.76 1.79 1.88 1.93 1.89 1.79 1.67 1.62 1.63 1.55 1.48 1.55 1.49 1.29 1.21 1.20 1.23 1.28 1.27 1.24
2.19 2.18 2.10 2.08 2.05 2.00 1.81 1.74 1.77 1.76 1.95 1.93 1.87 1.86 1.85 1.79 1.77 1.57 1.45 1.60 1.77 1.72 1.86 1.80 1.78 1.78 1.85 1.89 1.89 1.87 1.79 1.68 1.64 1.57 1.50 1.47 1.39 1.32 1.27 1.24 1.24 1.28 1.33
2.13 2.14 2.14 2.09 2.04 1.98 1.90 1.88 1.95 1.86 1.89 1.91 2.02 1.94 1.84 1.72 1.68 1.55 1.48 1.55 1.55 1.64 1.80 1.86 1.82 1.84 1.86 1.80 1.83 1.85 1.87 1.85 1.74 1.61 1.55 1.49 1.44 1.40 1.38 1.37 1.35 1.31 1.34
1.97 2.04 2.09 2.06 2.02 2.01 1.92 1.94 1.91 1.90 1.85 1.80 1.85 1.88 1.88 1.77 1.80 1.74 1.60 1.52 1.47 1.53 1.65 1.79 1.83 1.89 1.94 1.95 1.91 1.90 1.86 1.81 1.83 1.83 1.75 1.63 1.53 1.44 1.37 1.37 1.40 1.44 1.54
2.01 2.12 2.09 2.07 2.04 2.00 1.98 1.96 1.91 1.91 1.89 1.85 1.84 1.89 1.75 1.68 1.68 1.71 1.66 1.60 1.49 1.50 1.56 1.63 1.77 1.90 1.94 2.02 1.97 1.99 1.93 1.89 1.83 1.81 1.77 1.76 1.77 1.75 1.74 1.74 1.75 1.78 1.78
2.10 2.03 2.06 2.07 2.07 2.02 1.95 1.92 1.83 1.77 1.78 1.78 1.70 1.77 1.72 1.70 1.67 1.62 1.62 1.57 1.51 1.41 1.43 1.67 1.74 1.97 1.98 2.02 1.94 1.98 1.94 1.92 1.93 1.89 1.88 1.83 1.75 1.71 1.71 1.73 1.72 1.71 1.68
2.11 2.13 2.06 1.96 1.94 1.97 1.98 1.91 1.76 1.74 1.74 1.73 1.69 1.64 1.65 1.68 1.63 1.65 1.62 1.55 1.51 1.44 1.31 1.64 1.65 1.76 1.87 1.91 1.94 1.91 1.99 1.93 1.89 1.89 1.82 1.82 1.83 1.69 1.71 1.71 1.74 1.73 1.73
1.81 1.93 1.98 2.02 1.92 1.84 1.83 1.82 1.86 1.85 1.74 1.64 1.66 1.61 1.57 1.65 1.59 1.60 1.66 1.69 1.60 1.57 1.35 1.49 1.64 1.74 1.74 1.71 1.75 1.87 1.95 1.93 1.91 1.89 1.89 1.79 1.84 1.77 1.80 1.75 1.73 1.76 1.70
1.32 1.43 1.61 1.82 1.99 2.01 1.97 1.94 1.85 1.78 1.76 1.76 1.77 1.79 1.75 1.77 1.69 1.67 1.63 1.62 1.63 1.70 1.56 1.37 1.51 1.54 1.57 1.69 1.77 1.72 1.76 1.80 1.82 1.82 1.79 2.02 1.86 1.80 1.80 1.75 1.80 1.79 1.80
1.09 1.14 1.24 1.30 1.42 1.66 1.93 2.04 2.05 2.02 2.01 1.96 1.85 1.78 1.76 1.76 1.69 1.73 1.75 1.71 1.71 1.74 1.70 1.57 1.49 1.63 1.64 1.69 1.65 1.69 1.69 1.72 1.75 1.83 1.83 1.89 1.91 1.86 1.92 1.94 1.85 1.85 1.88
1.06 1.01 0.99 0.99 1.06 1.16 1.25 1.38 1.53 1.67 1.68 1.75 1.83 1.87 1.84 1.76 1.69 1.68 1.68 1.68 1.68 1.64 1.65 1.59 1.57 1.56 1.57 1.63 1.63 1.54 1.52 1.64 1.63 1.76 1.78 1.73 1.77 1.82 1.86 1.93 2.01 1.92 1.88
1.17 1.11 1.04 1.00 0.99 0.97 0.98 0.99 1.01 1.01 1.04 1.13 1.38 1.54 1.62 1.68 1.73 1.71 1.66 1.63 1.64 1.61 1.58 1.54 1.54 1.59 1.59 1.61 1.55 1.62 1.53 1.58 1.60 1.66 1.65 1.75 1.82 1.90 1.90 1.83 1.88 2.10 2.05
1.13 1.08 1.00 0.98 0.95 0.95 0.95 0.95 0.95 0.92 0.93 0.92 0.91 0.98 1.04 1.10 1.20 1.33 1.41 1.43 1.43 1.31 1.28 1.31 1.30 1.28 1.33 1.42 1.51 1.50 1.49 1.42 1.31 1.74 1.58 1.51 1.67 1.62 1.74 1.92 1.83 1.87 1.92
1.10 1.02 0.95 0.94 0.93 0.96 0.98 0.98 0.98 0.95 0.92 0.91 0.90 0.89 0.90 0.98 1.00 0.99 0.99 1.00 1.01 1.03 1.03 0.98 0.88 0.93 0.92 0.98 1.08 1.00 0.98 1.06 1.06 1.21 1.37 1.31 1.68 1.62 1.76 1.71 1.78 1.75 1.76
1.04 0.95 0.86 0.85 0.88 0.91 0.95 0.95 0.96 0.94 0.92 0.93 0.95 0.97 0.97 0.99 1.01 0.99 0.98 0.94 0.93 0.96 0.98 0.99 0.97 0.96 0.99 1.03 1.04 1.03 1.00 0.97 0.99 1.01 1.03 0.78 1.09 1.18 1.54 1.71 1.77 1.73 1.75
1.00 0.92 0.91 0.88 0.87 0.89 0.94 0.95 0.94 0.92 0.90 0.90 0.94 0.97 0.99 0.98 0.99 0.97 0.93 0.90 0.92 0.97 1.10 1.09 1.08 1.07 1.07 1.07 1.07 1.02 0.88 0.88 0.80 0.87 1.02 0.93 0.90 0.89 0.97 1.11 1.36 1.57 1.65
0.99 0.95 0.93 0.94 0.91 0.87 0.89 0.87 0.88 0.86 0.82 0.85 0.90 0.92 0.96 0.97 0.98 0.97 0.93 0.91 0.85 0.92 0.96 0.97 1.01 1.05 1.09 1.07 1.07 1.08 1.03 0.90 0.90 0.85 1.08 1.00 0.94 1.00 0.81 0.94 0.96 1.14 1.28

GFSMA_prec_pwat_243.txt.gz
Precipitable_Water
1.97 2.04 2.06 2.00 2.00 2.03 1.98 2.05 2.10 2.04 2.05 2.08 2.14 2.13 2.15 2.12 2.13 2.02 1.97 2.02 2.00 1.87 1.91 1.65 1.68 1.74 1.78 1.69 1.52 1.41 1.52 1.67 1.56 1.38 1.40 1.44 1.51 1.51 1.54 1.51 1.50 1.58 1.63
2.11 2.06 2.04 1.98 1.96 1.98 2.02 2.05 2.14 2.06 2.11 2.13 2.07 2.08 2.13 2.16 2.15 2.10 2.01 1.99 2.02 1.97 1.88 1.84 1.76 1.74 1.74 1.74 1.63 1.55 1.47 1.53 1.56 1.38 1.34 1.51 1.53 1.39 1.48 1.55 1.58 1.52 1.52
2.23 2.15 1.99 1.97 1.94 1.98 2.01 2.02 2.06 2.07 2.16 2.13 2.06 2.15 2.12 2.11 2.18 2.15 2.06 1.99 2.01 1.97 1.85 1.86 1.74 1.66 1.72 1.71 1.68 1.61 1.59 1.47 1.51 1.41 1.28 1.33 1.45 1.41 1.36 1.46 1.56 1.57 1.53
2.32 2.23 2.00 1.95 2.02 2.06 2.08 1.92 1.98 2.00 2.12 2.07 2.03 2.01 2.00 2.09 2.08 2.11 2.09 1.98 1.98 2.00 1.93 1.90 1.86 1.73 1.68 1.70 1.66 1.67 1.57 1.48 1.36 1.48 1.40 1.28 1.30 1.34 1.34 1.41 1.53 1.60 1.55
2.32 2.27 2.06 2.00 2.09 2.05 2.03 1.92 1.93 2.07 2.00 2.02 1.97 2.05 2.04 1.98 2.03 2.06 2.05 1.99 1.94 1.95 1.96 1.93 1.88 1.82 1.70 1.67 1.62 1.57 1.67 1.56 1.37 1.49 1.57 1.41 1.31 1.31 1.32 1.37 1.52 1.53 1.51
2.23 2.28 2.18 2.06 2.10 2.01 1.97 1.97 1.92 2.08 2.00 1.99 1.99 2.05 2.06 2.00 2.03 2.01 2.05 2.06 1.96 1.90 1.88 1.91 1.89 1.84 1.73 1.63 1.68 1.66 1.52 1.59 1.63 1.40 1.42 1.60 1.54 1.39 1.31 1.35 1.43 1.54 1.55
2.18 2.23 2.20 2.14 2.07 1.96 1.90 1.89 1.93 1.98 1.88 1.93 1.92 1.94 1.94 1.96 1.96 1.95 2.02 2.05 1.99 1.91 1.84 1.83 1.84 1.83 1.80 1.67 1.62 1.62 1.66 1.51 1.43 1.47 1.43 1.32 1.36 1.55 1.47 1.45 1.43 1.41 1.44
2.29 2.25 2.25 2.15 2.03 1.91 1.86 1.77 1.88 1.95 1.86 1.94 1.82 1.78 1.60 1.72 1.86 1.96 1.96 1.90 1.93 1.96 1.92 1.80 1.76 1.75 1.72 1.69 1.62 1.53 1.58 1.63 1.54 1.51 1.45 1.35 1.26 1.22 1.31 1.36 1.40 1.44 1.44
2.27 2.28 2.24 2.17 2.03 1.95 1.74 1.70 1.75 1.85 1.80 1.94 2.02 1.81 1.54 1.48 1.68 1.90 1.87 1.92 1.92 1.90 1.85 1.93 1.87 1.74 1.71 1.67 1.63 1.56 1.50 1.57 1.54 1.46 1.43 1.43 1.39 1.27 1.24 1.33 1.33 1.34 1.35
2.24 2.18 2.19 2.12 2.04 1.96 1.85 1.80 1.72 1.77 1.87 1.83 1.95 2.03 1.97 1.83 1.59 1.52 1.86 1.89 1.96 1.90 1.89 1.83 1.89 1.96 1.88 1.78 1.73 1.63 1.54 1.47 1.51 1.54 1.54 1.55 1.51 1.45 1.34 1.23 1.28 1.31 1.30
2.21 2.22 2.19 2.09 2.03 2.00 1.94 1.88 1.78 1.68 1.83 1.90 1.89 1.88 1.92 1.90 1.84 1.60 1.49 1.70 1.84 1.83 1.89 1.90 1.84 1.85 1.93 1.96 1.89 1.79 1.72 1.65 1.62 1.59 1.57 1.53 1.49 1.50 1.53 1.41 1.30 1.27 1.26
2.14 2.21 2.18 2.14 2.11 2.08 1.97 1.81 1.85 1.84 1.76 1.92 1.97 1.97 1.87 1.76 1.74 1.67 1.50 1.57 1.60 1.68 1.81 1.89 1.84 1.83 1.90 1.89 1.91 1.92 1.90 1.85 1.77 1.69 1.65 1.62 1.57 1.49 1.46 1.40 1.36 1.37 1.37
2.06 2.10 2.16 2.12 2.10 2.05 1.96 1.95 1.96 1.93 1.90 1.79 1.85 1.90 1.94 1.86 1.79 1.79 1.62 1.56 1.53 1.62 1.62 1.76 1.83 1.84 1.95 1.98 1.94 1.91 1.87 1.88 1.89 1.89 1.79 1.67 1.61 1.53 1.45 1.40 1.41 1.39 1.40
2.08 2.19 2.13 2.14 2.13 2.09 2.00 2.00 1.98 1.94 1.94 1.91 1.83 1.81 1.82 1.76 1.71 1.70 1.67 1.62 1.52 1.54 1.55 1.62 1.84 1.86 1.99 2.02 2.07 2.03 1.95 1.91 1.88 1.83 1.80 1.83 1.83 1.77 1.69 1.60 1.54 1.48 1.46
2.21 2.15 2.09 2.07 2.08 2.04 2.03 1.98 1.90 1.85 1.87 1.86 1.82 1.77 1.79 1.87 1.73 1.65 1.60 1.58 1.45 1.35 1.48 1.70 1.70 1.95 2.01 2.04 1.99 1.98 2.00 2.01 1.94 1.92 1.93 1.82 1.82 1.77 1.74 1.72 1.75 1.75 1.76
2.13 2.11 2.13 2.10 2.03 2.04 2.03 1.93 1.83 1.81 1.78 1.76 1.75 1.68 1.65 1.73 1.74 1.72 1.64 1.61 1.51 1.38 1.29 1.63 1.73 1.84 1.91 1.94 1.98 1.98 1.97 1.96 2.00 1.93 1.93 1.89 1.81 1.79 1.83 1.77 1.70 1.69 1.69
1.79 1.85 1.91 1.92 2.01 1.96 1.91 1.88 1.92 1.90 1.79 1.68 1.68 1.64 1.60 1.64 1.63 1.72 1.71 1.65 1.60 1.59 1.35 1.45 1.61 1.76 1.74 1.76 1.85 1.84 1.85 1.85 1.94 1.93 1.90 1.87 1.87 1.80 1.75 1.81 1.64 1.69 1.72
1.33 1.45 1.58 1.68 1.77 1.83 1.96 1.89 1.81 1.79 1.74 1.75 1.82 1.80 1.72 1.82 1.73 1.76 1.73 1.59 1.54 1.62 1.55 1.41 1.56 1.57 1.58 1.67 1.67 1.66 1.78 1.83 1.79 1.84 1.83 1.80 1.75 1.79 1.89 1.78 1.73 1.77 1.69
1.14 1.16 1.21 1.33 1.43 1.54 1.68 1.93 1.99 2.05 2.07 2.02 1.96 1.87 1.81 1.82 1.73 1.76 1.77 1.78 1.79 1.80 1.79 1.64 1.57 1.73 1.71 1.74 1.67 1.73 1.72 1.73 1.77 1.74 1.72 1.75 1.88 1.81 1.87 1.87 1.80 1.86 1.84
1.17 1.14 1.13 1.11 1.11 1.14 1.12 1.21 1.33 1.50 1.64 1.80 1.83 1.83 1.91 1.93 1.87 1.81 1.77 1.76 1.79 1.73 1.73 1.66 1.63 1.67 1.75 1.83 1.81 1.61 1.57 1.68 1.64 1.75 1.75 1.71 1.73 1.84 1.74 1.70 1.77 1.84 1.87
1.25 1.21 1.16 1.12 1.07 1.01 0.98 1.03 1.05 1.01 0.98 1.01 1.10 1.22 1.37 1.50 1.55 1.60 1.60 1.62 1.63 1.58 1.56 1.52 1.51 1.52 1.54 1.59 1.61 1.75 1.70 1.74 1.74 1.79 1.73 1.76 1.74 1.70 1.74 1.86 1.89 1.88 1.86
1.20 1.16 1.13 1.06 0.99 0.97 0.95 0.93 0.94 0.92 0.93 0.92 0.92 0.99 1.05 1.07 1.08 1.08 1.11 1.17 1.24 1.23 1.21 1.18 1.14 1.11 1.16 1.24 1.36 1.36 1.32 1.26 1.16 1.52 1.51 1.42 1.62 1.67 1.75 1.77 1.75 1.72 1.77
1.18 1.13 1.09 1.04 0.97 0.97 0.97 0.97 0.96 0.96 0.95 0.96 0.97 0.96 0.95 1.00 0.99 1.00 1.01 0.99 0.99 1.00 1.01 0.98 0.87 0.88 0.88 0.95 0.97 0.90 0.88 0.88 0.83 0.96 1.03 0.92 1.09 1.03 1.11 1.32 1.64 1.75 1.75
1.11 1.06 1.02 0.97 0.93 0.92 0.94 0.95 0.94 0.94 0.91 0.91 0.92 0.93 0.94 0.97 0.95 0.95 0.97 0.99 1.03 1.06 1.09 1.09 1.07 1.06 1.08 1.12 1.12 1.08 1.03 1.00 1.02 1.03 1.08 0.82 1.01 0.94 1.05 1.08 1.12 1.15 1.45
1.11 1.08 1.05 0.96 0.93 0.90 0.92 0.91 0.91 0.89 0.86 0.87 0.90 0.92 0.95 0.95 0.94 0.93 0.90 0.86 0.89 0.95 1.09 1.07 1.08 1.09 1.11 1.11 1.12 1.08 0.96 0.94 0.85 0.92 1.09 1.03 1.02 1.05 1.06 1.06 1.11 1.07 1.04
1.14 1.09 1.01 0.99 0.93 0.90 0.91 0.89 0.91 0.89 0.85 0.85 0.89 0.91 0.89 0.87 0.87 0.87 0.87 0.86 0.79 0.86 0.93 0.96 1.02 1.07 1.11 1.12 1.14 1.13 1.05 0.94 0.92 0.88 1.07 1.06 1.08 1.13 1.03 1.18 1.19 1.26 1.25